Location: Kernascl�den
(48.0062°N, 3.3198°W)
Time: 22:07:25
(UTC+00:00)

Cosmos 1844 Rocket - Pass Details

Date: 21 January 2021
Orbit: 826 x 843 km, 71.0° (Epoch: 03 March)

Event Time Altitude Azimuth Distance (km) Brightness Sun altitude
Rises 19:33:41 0° 226° (SW) 3,391 6.5 -25.9°
Reaches altitude 10° 19:36:14 10° 232° (SW) 2,459 5.8 -26.4°
Maximum altitude 19:41:38 46° 305° (NW) 1,128 3.6 -27.3°
Enters shadow 19:44:33 25° 4° (N) 1,635 4.1 -27.7°
